Location: Cheraw
(34.6968°N, 79.8912°W)
Time: 22:22:57
(UTC+00:00)

N. Korean satellite - Pass Details

Date: 19 August 2022
Orbit: 428 x 468 km, 97.3° (Epoch: 24 September)

Event Time Altitude Azimuth Distance (km) Brightness Sun altitude
Rises 09:58:01 0° 23° (NNE) 2,529 11.0 -9.6°
Reaches altitude 10° 10:00:16 10° 35° (NE) 1,643 10.2 -9.1°
Maximum altitude 10:03:24 29° 97° (E) 880 8.6 -8.5°
Drops below altitude 10° 10:06:30 10° 160° (SSE) 1,621 9.2 -8.0°
Sets 10:08:41 0° 171° (S) 2,479 10.0 -7.5°
